Beaver, WV

12:41 AM EST on February 11, 2016 (GMT -0500)
Raleigh County Memorial

Weather History for KBKW - October, 2014

Change the Weather History Date:

Saturday, October 4, 2014

  Actual Average Record
Temperature  
Mean Temperature 48 °F 57 °F  
Max Temperature 57 °F 67 °F 86 °F (1959)
Min Temperature 39 °F 47 °F 23 °F (1974)
Degree Days  
Heating Degree Days 17 9  
Month to date heating degree days 20 34  
Since 1 July heating degree days 108 168  
Cooling Degree Days 0 0  
Month to date cooling degree days 0 2  
Year to date cooling degree days 602 552  
Moisture  
Dew Point 36 °F    
Average Humidity 67    
Maximum Humidity 92    
Minimum Humidity 42    
Precipitation  
Precipitation 0.07 in 0.08 in 1.18 in (1964)
Month to date precipitation 0.50 0.32  
Year to date precipitation 27.22 32.99  
Snow  
Snow 0.00 in - - ()
Month to date snowfall 0.0  
Since 1 September snowfall 0.0  
Snow Depth 0.00 in    
Sea Level Pressure  
Sea Level Pressure 29.83 in    
Wind  
Wind Speed 10 mph (West)    
Max Wind Speed 28 mph    
Max Gust Speed 35 mph    
Visibility 10 miles    
Events Rain    
T = Trace of Precipitation, MM = Missing Value Source: NWS Daily Summary

Daily Weather History Graph

Daily Weather History Graph

Search for Another Location

Airport or City:

Trip Planner

Search our weather history database for the weather conditions in past years. The results will help you decide how hot, cold, wet, or windy it might be!

Date:

Astronomy

Oct. 04, 2014 Rise Set
Actual Time 7:22 AM EDT 7:03 PM EDT
Civil Twilight 6:56 AM EDT 7:29 PM EDT
Nautical Twilight 6:26 AM EDT 7:59 PM EDT
Astronomical Twilight 5:55 AM EDT 8:30 PM EDT
Moon 4:35 PM EDT (10/4) 2:53 AM EDT (10/4)
Length of Visible Light 12h 32m
Length of Day
11h 40m
Waxing Gibbous, 81% of the Moon is Illuminated
Oct 4
Waxing Gibbous
Oct 8
Full
Oct 15
Last Quarter
Oct 23
New
Oct 30
First Quarter

Hourly Weather History & Observations

Time (EDT) Temp. Windchill Dew Point Humidity Pressure Visibility Wind Dir Wind Speed Gust Speed Precip Events Conditions
12:20 AM 57.0 °F - 55.0 °F 93% 29.81 in 4.0 mi West 4.6 mph - 0.02 in Rain Light Rain
12:51 AM 57.0 °F - 54.0 °F 89% 29.75 in 8.0 mi West 8.1 mph - 0.04 in Rain Light Rain
1:51 AM 54.0 °F - 48.0 °F 80% 29.76 in 10.0 mi WNW 9.2 mph - 0.00 in   Overcast
2:51 AM 52.0 °F - 46.9 °F 83% 29.75 in 10.0 mi West 4.6 mph - N/A   Clear
3:35 AM 52.0 °F - 48.9 °F 89% 29.80 in 10.0 mi West 15.0 mph 20.7 mph N/A   Overcast
3:51 AM 50.0 °F - 46.0 °F 86% 29.77 in 4.0 mi WNW 10.4 mph - 0.03 in Rain Rain
4:42 AM 48.9 °F - 46.0 °F 90% 29.81 in 10.0 mi West 8.1 mph - 0.01 in   Overcast
4:51 AM 48.9 °F - 46.0 °F 90% 29.77 in 10.0 mi Variable 6.9 mph - 0.01 in   Overcast
5:29 AM 48.0 °F - 45.0 °F 89% 29.81 in 10.0 mi WNW 4.6 mph - 0.01 in Rain Light Rain
5:51 AM 48.0 °F - 45.0 °F 89% 29.77 in 6.0 mi NW 8.1 mph - 0.01 in Rain Light Rain
6:51 AM 45.0 °F 38.5 °F 42.1 °F 90% 29.80 in 10.0 mi NW 13.8 mph 20.7 mph 0.02 in Rain Light Rain
7:51 AM 43.0 °F 35.4 °F 37.0 °F 80% 29.83 in 10.0 mi WNW 16.1 mph 24.2 mph 0.00 in   Overcast
8:05 AM 42.1 °F 34.9 °F 34.0 °F 73% 29.85 in 10.0 mi West 13.8 mph 23.0 mph N/A   Overcast
8:51 AM 42.1 °F 37.1 °F 33.1 °F 70% 29.83 in 10.0 mi WNW 8.1 mph - N/A   Overcast
9:51 AM 43.0 °F 37.7 °F 34.0 °F 71% 29.83 in 10.0 mi West 9.2 mph - N/A   Overcast
9:59 AM 45.0 °F 38.9 °F 35.1 °F 68% 29.84 in 10.0 mi West 12.7 mph 20.7 mph N/A   Overcast
10:09 AM 43.0 °F 36.4 °F 33.1 °F 68% 29.83 in 10.0 mi West 12.7 mph 17.3 mph N/A   Overcast
10:47 AM 42.8 °F 36.6 °F 33.8 °F 70% 29.85 in 10.0 mi West 11.5 mph 21.9 mph 0.00 in Rain Light Rain
10:51 AM 42.1 °F 35.7 °F 34.0 °F 73% 29.84 in 10.0 mi WNW 11.5 mph 21.9 mph 0.00 in Rain Light Rain
11:08 AM 43.0 °F 36.8 °F 33.1 °F 68% 29.85 in 10.0 mi WNW 11.5 mph - 0.00 in   Overcast
11:51 AM 44.1 °F 35.9 °F 27.0 °F 51% 29.83 in 10.0 mi WNW 19.6 mph 27.6 mph 0.00 in   Mostly Cloudy
12:51 PM 46.0 °F 39.0 °F 26.1 °F 46% 29.82 in 10.0 mi West 17.3 mph 34.5 mph N/A   Mostly Cloudy
1:51 PM 44.1 °F 38.1 °F 26.1 °F 49% 29.81 in 10.0 mi NW 11.5 mph - N/A   Mostly Cloudy
2:51 PM 46.9 °F - 25.0 °F 42% 29.80 in 10.0 mi WSW 13.8 mph 23.0 mph N/A   Mostly Cloudy
3:51 PM 48.0 °F - 26.1 °F 42% 29.80 in 10.0 mi NW 13.8 mph - N/A   Mostly Cloudy
4:51 PM 46.9 °F - 26.1 °F 44% 29.82 in 10.0 mi West 12.7 mph 25.3 mph N/A   Overcast
5:51 PM 46.0 °F 41.9 °F 27.0 °F 47% 29.84 in 10.0 mi WNW 8.1 mph - N/A   Overcast
6:51 PM 45.0 °F 40.6 °F 27.0 °F 49% 29.86 in 10.0 mi West 8.1 mph - N/A   Overcast
7:51 PM 44.1 °F 40.8 °F 28.9 °F 55% 29.88 in 10.0 mi West 5.8 mph - N/A   Overcast
8:51 PM 43.0 °F 40.3 °F 30.0 °F 60% 29.91 in 10.0 mi WSW 4.6 mph - N/A   Overcast
9:51 PM 43.0 °F 39.5 °F 30.9 °F 62% 29.92 in 10.0 mi WSW 5.8 mph - N/A   Overcast
10:51 PM 42.1 °F 38.4 °F 32.0 °F 67% 29.93 in 10.0 mi WSW 5.8 mph - N/A   Overcast
11:51 PM 39.9 °F 37.8 °F 32.0 °F 73% 29.93 in 10.0 mi West 3.5 mph - N/A   Clear